Regional Weather Roundup
Issued by NWS

Home | Current Version | Previous Version | Text Only | Print | Product List | Glossary Off
Versions: 1 2 3 4 5 6 7 8 9 10 11 12 13 14 15 16 17 18 19 20 21 22 23 24 25 26 27 28 29 30 31 32 33 34 35 36 37 38 39 40 41 42 43 44 45 46 47 48 49 50

000
ASUS43 KMKX 250810
RWRWI

WISCONSIN REGIONAL WEATHER ROUNDUP
NATIONAL WEATHER SERVICE MILWAUKEE/SULLIVAN WI
200 AM CST SUN FEB 25 2018

NOTE: "FAIR" INDICATES FEW OR NO CLOUDS BELOW 12,000 FEET WITH NO
SIGNIFICANT WEATHER AND/OR OBSTRUCTIONS TO VISIBILITY.

WIZ001-002-006>008-014>016-023>028-250900-
NORTHWEST WISCONSIN

CITY           SKY/WX    TMP DP  RH WIND       PRES   REMARKS
SUPERIOR ARPT  LGT SNOW  29  28  98 E8        29.35F WCI  21
ASHLAND        LGT SNOW  27  27 100 NE3       29.32F FOG
HAYWARD        LGT SNOW  30  27  88 SW10      29.32F FOG     WCI  21
SIREN          LGT SNOW  28  27  96 W13G22    29.38S WCI  17
CUMBERLAND     LGT SNOW  28  25  86 W17       29.38R WCI  16
RICE LAKE      LGT SNOW  29  28  93 SW10G24   29.40R VSB 3/4 WCI  20
CHETEK         LGT SNOW  28  26  91 W13G22    29.40R WCI  18
LADYSMITH      FLURRIES  31  31  98 SW9       29.36S WCI  23
EAU CLAIRE     CLOUDY    26  22  84 W18G33    29.44R FOG     WCI  13
MENOMONIE      CLOUDY    26  23  87 SW20G29   29.46R FOG     WCI  13
NEW RICHMOND   LGT SNOW  24  21  89 W17G24    29.45R WCI  10
OSCEOLA        LGT SNOW  26  26 100 W15       29.47S WCI  13
$$

WIZ003>005-009-010-017-018-250900-
NORTH CENTRAL WISCONSIN

CITY           SKY/WX    TMP DP  RH WIND       PRES   REMARKS
MANITOWISH WTR LGT SNOW  28  28 100 S6        29.29F WCI  21
ARBOR VITAE    LGT SNOW  32  30  94 S5        29.29F WCI  27
WOODRUFF       LGT SNOW  32  30  94 S5        29.29F WCI  27
RHINELANDER    LGT SNOW  29  29 100 S3        29.30F FOG
EAGLE RIVER    LGT SNOW  28  28 100 CALM      29.29F
LAND O LAKES   LGT SNOW  29  28  95 S3        29.30F VSB 1
PHILLIPS       LGT SNOW  29  29 100 S7        29.30F WCI  22
TOMAHAWK       LGT RAIN  29  28  96 CALM      29.32F
MEDFORD        LGT SNOW  31  29  94 SW12      29.33S WCI  21
MERRILL        LGT SNOW  31  31 100 S5        29.33F WCI  26
$$

WIZ029-030-035-036-043>047-250900-
CENTRAL WISCONSIN

CITY           SKY/WX    TMP DP  RH WIND       PRES   REMARKS
WAUSAU         LGT SNOW  32  31  96 SW8       29.33S FOG     WCI  25
MOSINEE        CLOUDY    32  32 100 SW12      29.36F WCI  23
MARSHFIELD     CLOUDY    32  29  88 W20G30    29.36S WCI  20
STEVENS POINT  CLOUDY    31  31 100 W7        29.37F WCI  24
WAUPACA        CLOUDY    36  34  94 SW12G17   29.39S WCI  28
WAUTOMA        NOT AVBL
WISC RAPIDS    CLOUDY    33  29  85 MISG      29.41R
CAMP DOUGLAS   CLOUDY    31  27  87 W28G38    29.46R WCI  16
$$

WIZ011>013-019>022-031-037>040-048>050-250900-
NORTHEAST WISCONSIN

CITY           SKY/WX    TMP DP  RH WIND       PRES   REMARKS
ANTIGO         MIX PCPN  30  30 100 SE10      29.30F WCI  21
SHAWANO        RAIN      34  32  94 CALM      29.35F
OCONTO         CLOUDY    32  32  99 CALM      29.35F
STURGEON BAY   LGT SNOW  34  32  92 S10       29.35F FOG     WCI  26
GREEN BAY      LGT RAIN  35  33  92 S7        29.37F FOG     WCI  29
MANITOWOC      LGT RAIN  37  36  93 S15       29.37F WCI  28
APPLETON       DRIZZLE   34  34 100 SW10      29.36S WCI  26
CLINTONVILLE   LGT SNOW  33  32  98 S6        29.36F WCI  27
OSHKOSH        CLOUDY    37  35  92 W13G22    29.39S WCI  29
$$

WIZ032>034-041-042-053>061-250900-
SOUTHWEST WISCONSIN

CITY           SKY/WX    TMP DP  RH WIND       PRES   REMARKS
LA CROSSE      CLOUDY    26  20  77 W12G33    29.58R WCI  16
SPARTA         CLOUDY    27  24  88 W15G23    29.53R WCI  16
VIROQUA        CLOUDY    24  23  96 W15G26    29.54R WCI  12
BOSCOBEL       CLOUDY    28  20  71 W18G43    29.62R WCI  15
PRAIRIE DU CHI CLOUDY    28  21  76 W20G33    29.64R WCI  14
PLATTEVILLE    CLOUDY    30  27  88 W22G31    29.61R WCI  17
$$

WIZ056-057-062-063-064-067-068-250900-
SOUTH CENTRAL WISCONSIN

CITY           SKY/WX    TMP DP  RH WIND       PRES   REMARKS
REEDSBURG      CLOUDY    30  25  81 W22G33    29.51R WCI  17
BARABOO/DELLS  CLOUDY    32  27  81 W22G33    29.48R WCI  19
LONE ROCK      CLOUDY    31  25  78 W22G38    29.56R WCI  18
MINERAL POINT  CLOUDY    30 N/A N/A W30G36    29.56R WCI  15
MADISON        CLOUDY    33  28  81 W12G30    29.51R WCI  24
MIDDLETON      CLOUDY    34  29  82 W28G36    29.51R WCI  20
WATERTOWN      CLOUDY    35  34  99 SW21G26   29.48R WCI  23
MONROE         CLOUDY    32  28  86 W29G38    29.56R WCI  18
JANESVILLE     CLOUDY    32  32 100 W24G31    29.56R WCI  19
$$

WIZ051-052-058>065-066-070>072-250900-
SOUTHEAST WISCONSIN

CITY           SKY/WX    TMP DP  RH WIND       PRES   REMARKS
MILWAUKEE      CLOUDY    42  39  89 W28G39    29.45R
WAUKESHA       CLOUDY    34  32  93 W22G36    29.48R WCI  22
MILWAUKEE/TIMM CLOUDY    37  34  87 W26G35    29.44R WCI  26
RACINE         CLOUDY    40  37  89 W29G46    29.46R WCI  29
BURLINGTON     CLOUDY    35  31  86 W23G31    29.52R WCI  23
KENOSHA        CLOUDY    39  34  82 W31G47    29.49R WCI  27
FOND DU LAC    LGT RAIN  38  34  85 W15G25    29.41R WCI  29
SHEBOYGAN      CLOUDY    37  37 100 S13       29.38F FOG     WCI  29
WEST BEND      CLOUDY    37  37 100 W22G31    29.41R WCI  27
JUNEAU         CLOUDY    33  32  94 SW23G30   29.47R WCI  21
$$

LSZ147-162-250900-
LAKE SUPERIOR

STATION/POSITION TIME  TEMP    WIND        PRES    WAVE
                       AIR SEA DIR/SP/G            HT/PER
                 (UTC) (F)     (DEG/KT/KT) (MB)    (FT/S)
DEVILS ISLAND    0800   29      90/ 14/ 16  994.2F
SAXON HARBOR     0740   28      70/  1/  3  993.2F
$$

LMZ867-665-643>646-250900-
LAKE MICHIGAN

STATION/POSITION TIME  TEMP    WIND        PRES    WAVE
                       AIR SEA DIR/SP/G            HT/PER
                 (UTC) (F)     (DEG/KT/KT) (MB)    (FT/S)
NORTHPORT PIER   0722   33                  997.0F
KEWAUNEE LAKESHO 0748   36     180/ 13/ 16  994.2F
SHEBOYGAN LAKESH 0800   38     200/ 18/ 21  995.2F
PORT WASHINGTON  0740   37     240/  4/  7  997.0F
KENOSHA   LAKESH 0800   39     250/ 31/ 44  998.6
$$

TC  - TEMPERATURE IN CELSIUS
VSB - VISIBILITY IN STATUTE MILES
WCI - WIND CHILL INDEX
HX  - HEAT INDEX





USA.gov is the U.S. government's official web portal to all federal, state and local government web resources and services.